CYLU

Kangiqsualujjuaq (Georges River) Airport

ICAO Code CYLU
IATA Code XGR
Name Kangiqsualujjuaq (Georges River) Airport
Location Kangiqsualujjuaq, Quebec, CA
Elevation 217 Feet / 66.1 Meters
Latitude 58.71138889
Longitude -65.99277778
METAR CYLU 130300Z AUTO 13012G17KT 17/03 A2966
Extra information Display Charts
Runway Length Width Surface Elevation
16 3521 ft 100 ft GRAVEL 158 ft
34 3521 ft 100 ft GRAVEL 217 ft